This is the latest recevied weather packets stored in our database for station/object W4OCD. If no packets are shown the sender has not sent any weather packets the latest 10 day(s).
| Time | Temp. | Humidity | Pressure | Rain* | Wind** | Luminosity | Snow |
|---|---|---|---|---|---|---|---|
| 1777816697 | 16.11° C | 48% | 1021.8 hPa | 0 mm | - | 206 W/m² | - |
| 1777815487 | 16.11° C | 57% | 1021.4 hPa | 0 mm | - | 353 W/m² | - |
| 1777814880 | 15° C | 63% | 1021.4 hPa | 0 mm | - | 312 W/m² | - |
| 1777812457 | 13.33° C | 73% | 1021.4 hPa | 0 mm | - | 170 W/m² | - |
| 1777811853 | 11.67° C | 81% | 1021.4 hPa | 0 mm | - | 146 W/m² | - |
| 1777811246 | 10.56° C | 83% | 1021.5 hPa | 0 mm | - | 42 W/m² | - |
| 1777810944 | 10° C | 83% | 1021.4 hPa | 0 mm | - | 33 W/m² | - |
| 1777810640 | 10° C | 84% | 1021.3 hPa | 0 mm | - | 31 W/m² | - |
| 1777810033 | 9.44° C | 84% | 1021.1 hPa | 0 mm | - | 28 W/m² | - |
| 1777809428 | 8.89° C | 87% | 1021 hPa | 0 mm | - | 25 W/m² | - |
| 1777808824 | 7.78° C | 90% | 1020.9 hPa | 0 mm | - | 21 W/m² | - |
| 1777808217 | 7.78° C | 90% | 1021.3 hPa | 0 mm | - | 17 W/m² | - |
| 1777806703 | 7.78° C | 87% | 1020.5 hPa | 0 mm | - | 6 W/m² | - |
| 1777806399 | 7.78° C | 87% | 1020.5 hPa | 0 mm | - | 3 W/m² | - |
| 1777804583 | 8.33° C | 87% | 1020.1 hPa | 0 mm | - | 0 W/m² | - |
| 1777803977 | 7.78° C | 87% | 1019.9 hPa | 0 mm | - | 0 W/m² | - |
| 1777803674 | 7.78° C | 88% | 1020.1 hPa | 0 mm | - | 0 W/m² | - |
| 1777803068 | 7.78° C | 88% | 1020.2 hPa | 0 mm | - | 0 W/m² | - |
| 1777802765 | 7.78° C | 88% | 1020.3 hPa | 0 mm | - | 0 W/m² | - |
| 1777802463 | 7.78° C | 89% | 1020.2 hPa | 0 mm | - | 0 W/m² | - |
| 1777801858 | 7.78° C | 89% | 1020.2 hPa | 0 mm | - | 0 W/m² | - |
| 1777801555 | 7.78° C | 87% | 1020 hPa | 0 mm | - | 0 W/m² | - |
| 1777800948 | 8.33° C | 86% | 1020 hPa | 0 mm | - | 0 W/m² | - |
| 1777800645 | 8.33° C | 86% | 1020 hPa | 0 mm | - | 0 W/m² | - |
| 1777800340 | 8.33° C | 85% | 1019.9 hPa | 0 mm | - | 0 W/m² | - |
* Rain latest hour (hover to see other rain measurements)
** Current wind speed in m/s (hover to see current wind gust speed)